• In India
  • List of Countries
  • For 7 days
  • Water Temperature
  • Satellite Maps
  • Weather Map
  • Weather Widgets
  • user-avatar
    Login

    Hourly Weather Zaliznychne

    Today, 21 September, Friday

    Time Temperature Precipitation Wind Pressure Humidity
    00:00 +21°C° 0 mm 1 mps 764 mmHg 48%
    01:00 +21°C° 0 mm 1 mps 764 mmHg 48%
    02:00 +20°C° 0 mm 2 mps 764 mmHg 48%
    03:00 +20°C° 0 mm 2 mps 764 mmHg 49%
    04:00 +19°C° 0 mm 2 mps 764 mmHg 50%
    05:00 +19°C° 0 mm 2 mps 764 mmHg 50%
    06:00 +20°C° 0 mm 2 mps 764 mmHg 48%
    07:00 +23°C° 0 mm 2 mps 764 mmHg 45%
    08:00 +24°C° 0 mm 2 mps 764 mmHg 43%
    09:00 +26°C° 0 mm 3 mps 764 mmHg 40%
    10:00 +27°C° 0 mm 3 mps 764 mmHg 37%
    11:00 +29°C° 0 mm 3 mps 764 mmHg 34%
    12:00 +29°C° 0 mm 3 mps 764 mmHg 34%
    13:00 +30°C° 0 mm 3 mps 763 mmHg 33%
    14:00 +30°C° 0 mm 3 mps 763 mmHg 33%
    15:00 +29°C° 0 mm 3 mps 763 mmHg 36%
    16:00 +28°C° 0 mm 3 mps 763 mmHg 40%
    17:00 +27°C° 0 mm 3 mps 763 mmHg 43%
    18:00 +25°C° 0 mm 2 mps 763 mmHg 47%
    19:00 +24°C° 0 mm 2 mps 763 mmHg 51%
    20:00 +23°C° 0 mm 2 mps 763 mmHg 55%
    21:00 +22°C° 0 mm 1 mps 763 mmHg 56%
    22:00 +22°C° 0 mm 1 mps 763 mmHg 57%
    23:00 +21°C° 0 mm 1 mps 763 mmHg 58%

    Tomorrow, 22 September, Saturday

    Time Temperature Precipitation Wind Pressure Humidity
    00:00 +21°C° 0 mm 1 mps 763 mmHg 58%
    01:00 +21°C° 0 mm 1 mps 763 mmHg 59%
    02:00 +20°C° 0 mm 2 mps 763 mmHg 60%
    03:00 +20°C° 0 mm 2 mps 763 mmHg 60%
    04:00 +19°C° 0 mm 2 mps 763 mmHg 61%
    05:00 +19°C° 0 mm 2 mps 763 mmHg 62%
    06:00 +21°C° 0 mm 3 mps 763 mmHg 59%
    07:00 +22°C° 0 mm 3 mps 763 mmHg 55%
    08:00 +24°C° 0 mm 3 mps 763 mmHg 52%
    09:00 +26°C° 0 mm 3 mps 763 mmHg 47%
    10:00 +27°C° 0 mm 3 mps 762 mmHg 43%
    11:00 +29°C° 0 mm 3 mps 762 mmHg 39%
    12:00 +29°C° 0 mm 4 mps 762 mmHg 37%
    13:00 +29°C° 0 mm 4 mps 762 mmHg 36%
    14:00 +30°C° 0 mm 4 mps 761 mmHg 35%
    15:00 +28°C° 0 mm 4 mps 761 mmHg 38%
    16:00 +27°C° 0 mm 4 mps 761 mmHg 42%
    17:00 +26°C° 0 mm 4 mps 761 mmHg 46%
    18:00 +24°C° 0 mm 3 mps 761 mmHg 50%
    19:00 +22°C° 0 mm 3 mps 761 mmHg 55%
    20:00 +21°C° 0 mm 2 mps 762 mmHg 59%
    21:00 +20°C° 0 mm 2 mps 761 mmHg 59%
    22:00 +20°C° 0 mm 2 mps 761 mmHg 60%
    23:00 +20°C° 0 mm 2 mps 761 mmHg 60%

    Day after tomorrow, 23 September, Sunday

    Time Temperature Precipitation Wind Pressure Humidity
    00:00 +20°C° 0 mm 2 mps 761 mmHg 62%
    01:00 +19°C° 0 mm 2 mps 760 mmHg 63%
    02:00 +19°C° 0 mm 2 mps 760 mmHg 64%
    03:00 +19°C° 0 mm 2 mps 760 mmHg 65%
    04:00 +19°C° 0 mm 2 mps 760 mmHg 66%
    05:00 +19°C° 0 mm 3 mps 760 mmHg 67%
    06:00 +20°C° 0 mm 3 mps 760 mmHg 64%
    07:00 +21°C° 0 mm 4 mps 760 mmHg 61%
    08:00 +22°C° 0 mm 5 mps 760 mmHg 57%
    09:00 +21°C° 0.2 mm 5 mps 761 mmHg 63%
    10:00 +20°C° 0.2 mm 6 mps 761 mmHg 68%
    11:00 +19°C° 0.2 mm 6 mps 761 mmHg 74%
    12:00 +19°C° 0.2 mm 6 mps 762 mmHg 68%
    13:00 +18°C° 0.2 mm 7 mps 762 mmHg 62%
    14:00 +18°C° 0.2 mm 7 mps 762 mmHg 56%
    15:00 +19°C° 0 mm 6 mps 763 mmHg 52%
    16:00 +19°C° 0 mm 6 mps 763 mmHg 47%
    17:00 +19°C° 0 mm 5 mps 763 mmHg 43%
    18:00 +18°C° 0 mm 4 mps 764 mmHg 46%
    19:00 +17°C° 0 mm 4 mps 764 mmHg 48%
    20:00 +16°C° 0 mm 3 mps 765 mmHg 50%
    21:00 +15°C° 0 mm 4 mps 765 mmHg 51%
    22:00 +14°C° 0 mm 4 mps 765 mmHg 52%
    23:00 +14°C° 0 mm 4 mps 766 mmHg 53%

    24 September, Monday

    Time Temperature Precipitation Wind Pressure Humidity
    00:00 +14°C° 0 mm 4 mps 766 mmHg 54%
    01:00 +13°C° 0 mm 4 mps 766 mmHg 55%
    02:00 +13°C° 0 mm 3 mps 766 mmHg 57%
    03:00 +13°C° 0 mm 3 mps 766 mmHg 58%
    04:00 +13°C° 0 mm 2 mps 766 mmHg 59%
    05:00 +13°C° 0 mm 1 mps 766 mmHg 60%
    06:00 +14°C° 0 mm 1 mps 766 mmHg 56%
    07:00 +16°C° 0 mm 1 mps 766 mmHg 51%
    08:00 +18°C° 0 mm 1 mps 765 mmHg 47%
    09:00 +19°C° 0 mm 2 mps 765 mmHg 42%
    10:00 +20°C° 0 mm 3 mps 765 mmHg 37%
    11:00 +22°C° 0 mm 3 mps 764 mmHg 32%
    12:00 +22°C° 0 mm 3 mps 764 mmHg 31%
    13:00 +24°C° 0 mm 3 mps 763 mmHg 31%
    14:00 +25°C° 0 mm 4 mps 762 mmHg 30%
    15:00 +23°C° 0 mm 4 mps 762 mmHg 33%
    16:00 +22°C° 0 mm 5 mps 761 mmHg 36%
    17:00 +21°C° 0 mm 5 mps 761 mmHg 40%
    18:00 +20°C° 0 mm 5 mps 761 mmHg 45%
    19:00 +19°C° 0 mm 5 mps 760 mmHg 51%
    20:00 +17°C° 0 mm 5 mps 760 mmHg 56%
    21:00 +17°C° 0 mm 5 mps 760 mmHg 58%
    22:00 +17°C° 0 mm 5 mps 759 mmHg 60%
    23:00 +17°C° 0 mm 5 mps 758 mmHg 62%

    25 September, Tuesday

    Time Temperature Precipitation Wind Pressure Humidity
    00:00 +17°C° 0 mm 5 mps 758 mmHg 64%
    01:00 +18°C° 0 mm 4 mps 758 mmHg 65%
    02:00 +18°C° 0 mm 4 mps 758 mmHg 67%
    03:00 +17°C° 0.1 mm 5 mps 758 mmHg 67%
    04:00 +16°C° 0.1 mm 5 mps 758 mmHg 67%
    05:00 +16°C° 0.1 mm 6 mps 758 mmHg 68%
    06:00 +15°C° 1.1 mm 6 mps 758 mmHg 70%
    07:00 +14°C° 1.1 mm 6 mps 759 mmHg 72%
    08:00 +11°C° 1.1 mm 7 mps 759 mmHg 74%
    09:00 +12°C° 0.6 mm 7 mps 760 mmHg 70%
    10:00 +13°C° 0.6 mm 6 mps 760 mmHg 66%
    11:00 +14°C° 0.6 mm 6 mps 760 mmHg 61%
    12:00 +15°C° 0.1 mm 7 mps 760 mmHg 55%
    13:00 +16°C° 0.1 mm 7 mps 760 mmHg 48%
    14:00 +18°C° 0.1 mm 8 mps 760 mmHg 42%
    15:00 +17°C° 0 mm 8 mps 760 mmHg 43%
    16:00 +16°C° 0 mm 8 mps 761 mmHg 43%
    17:00 +16°C° 0 mm 8 mps 761 mmHg 44%
    18:00 +15°C° 0 mm 7 mps 762 mmHg 46%
    19:00 +14°C° 0 mm 7 mps 762 mmHg 48%
    20:00 +11°C° 0 mm 7 mps 763 mmHg 50%
    21:00 +11°C° 0 mm 7 mps 763 mmHg 50%
    22:00 +11°C° 0 mm 7 mps 764 mmHg 51%
    23:00 +10°C° 0 mm 6 mps 764 mmHg 52%

    26 September, Wednesday

    Time Temperature Precipitation Wind Pressure Humidity
    00:00 +10°C° 0 mm 6 mps 764 mmHg 52%
    01:00 +9°C° 0 mm 6 mps 764 mmHg 53%
    02:00 +9°C° 0 mm 6 mps 765 mmHg 53%
    03:00 +9°C° 0 mm 6 mps 765 mmHg 54%
    04:00 +8°C° 0 mm 6 mps 765 mmHg 55%
    05:00 +8°C° 0 mm 6 mps 765 mmHg 55%
    06:00 +9°C° 0 mm 5 mps 765 mmHg 53%
    07:00 +10°C° 0 mm 5 mps 766 mmHg 50%
    08:00 +12°C° 0 mm 5 mps 766 mmHg 48%
    09:00 +13°C° 0 mm 5 mps 766 mmHg 43%
    10:00 +14°C° 0 mm 5 mps 766 mmHg 38%
    11:00 +15°C° 0 mm 5 mps 766 mmHg 33%
    12:00 +16°C° 0 mm 5 mps 766 mmHg 32%
    13:00 +17°C° 0 mm 4 mps 766 mmHg 30%
    14:00 +17°C° 0 mm 4 mps 766 mmHg 29%
    15:00 +17°C° 0 mm 4 mps 766 mmHg 31%
    16:00 +16°C° 0 mm 3 mps 766 mmHg 33%
    17:00 +16°C° 0 mm 3 mps 766 mmHg 36%
    18:00 +14°C° 0 mm 3 mps 767 mmHg 38%
    19:00 +14°C° 0 mm 2 mps 767 mmHg 41%
    20:00 +13°C° 0 mm 2 mps 768 mmHg 44%
    21:00 +12°C° 0 mm 3 mps 768 mmHg 47%
    22:00 +11°C° 0 mm 3 mps 768 mmHg 49%
    23:00 +11°C° 0 mm 3 mps 768 mmHg 52%
    Show more